This demonstration page uses our WeatherBlox Daily Observations layout. Learn more.

Left ArrowRight Arrow

39.12711, -84.51439

Hourly Observations for October 31, 2016

Temp ( °F °C ) Dew Point ( °F °C ) Humidity (%) Winds ( mph kmh ) Pressure ( in mb ) Visibility ( mi km ) Precip ( " mm )
12:53 am 00:53 Cloudy 54 12.2 48 8.9 80 80 NE 12 19 30.18 1022 10 16 0.00 0.00
1:53 am 01:53 Cloudy 54 12.2 48 8.9 80 80 ENE 7 11 30.19 1022 10 16 0.00 0.00
2:53 am 02:53 Cloudy 53 11.7 47 8.3 80 80 NE 8 13 30.18 1022 10 16 0.00 0.00
3:53 am 03:53 Cloudy 53 11.7 48 8.9 83 83 ENE 8 13 30.18 1022 10 16 0.00 0.00
4:53 am 04:53 Cloudy 53 11.7 47 8.3 80 80 NE 6 9 30.16 1022 10 16 0.00 0.00
5:53 am 05:53 Cloudy 52 11.1 48 8.9 86 86 NE 3 6 30.19 1022 10 16 0.00 0.00
6:53 am 06:53 Cloudy 51 10.6 48 8.9 89 89 NE 5 7 30.19 1022 10 16 0.00 0.00
7:07 am 07:07 Mostly Cloudy 50 10 48 8.9 93 93 NE 6 9 30.18 1022 10 16 0.00 0.00
7:53 am 07:53 Cloudy 51 10.6 47 8.3 86 86 ENE 6 9 30.19 1022 10 16 0.00 0.00
8:53 am 08:53 Mostly Cloudy 50 10 47 8.3 89 89 NE 7 11 30.21 1023 10 16 0.00 0.00
9:53 am 09:53 Partly Cloudy 52 11.1 46 7.8 80 80 ENE 9 15 30.21 1023 10 16 0.00 0.00
10:15 am 10:15 Mostly Cloudy 52 11.1 46 7.8 80 80 E 7 11 30.21 1023 10 16 0.00 0.00
10:53 am 10:53 Mostly Cloudy 53 11.7 46 7.8 77 77 VRB 7 11 30.20 1023 10 16 0.00 0.00
11:53 am 11:53 Cloudy 55 12.8 47 8.3 74 74 ESE 6 9 30.20 1023 10 16 0.00 0.00
12:53 pm 12:53 Cloudy 57 13.9 48 8.9 72 72 VRB 6 9 30.18 1022 10 16 0.00 0.00
1:53 pm 13:53 Mostly Cloudy 60 15.6 49 9.4 67 67 Calm 30.15 1021 10 16 0.00 0.00
2:53 pm 14:53 Mostly Cloudy 61 16.1 51 10.6 70 70 VRB 5 7 30.13 1020 10 16 0.00 0.00
3:53 pm 15:53 Sunny 62 16.7 52 11.1 70 70 VRB 5 7 30.10 1019 10 16 0.00 0.00
4:53 pm 16:53 Sunny 63 17.2 52 11.1 68 68 NE 6 9 30.10 1019 10 16 0.00 0.00
5:53 pm 17:53 Sunny 60 15.6 52 11.1 75 75 ENE 6 9 30.09 1019 10 16 0.00 0.00
6:53 pm 18:53 Clear 57 13.9 51 10.6 81 81 NE 5 7 30.09 1019 10 16 0.00 0.00
7:53 pm 19:53 Clear 54 12.2 53 11.7 97 97 Calm 30.09 1019 10 16 0.00 0.00
8:53 pm 20:53 Clear 52 11.1 52 11.1 100 100 Calm 30.08 1019 10 16 0.00 0.00
9:53 pm 21:53 Clear 52 11.1 52 11.1 100 100 Calm 30.08 1019 10 16 0.00 0.00
10:53 pm 22:53 Clear 52 11.1 52 11.1 100 100 Calm 30.07 1018 9 14 0.00 0.00
11:53 pm 23:53 Mostly Cloudy 52 11.1 52 11.1 100 100 Calm 30.07 1018 9 14 0.00 0.00

Powered by AerisWeather